User: anonymous   Login
Location: Petrozavodsk
(61.7857°N, 34.3593°E)
Time: 02:41:51
(UTC+03:00)
Language:

Terra - Orbit

View from above orbital plane
View from above orbital plane
View from above satellite
View from above satellite

Ground track
Ground track

The orbit data is extracted from the following two-line orbital elements,

1 25994U 99068A   19140.83161326  .00000018  00000-0  14012-4 0  9997
2 25994  98.2058 215.7944 0001447 101.5173 258.6165 14.57114647 32995
Epoch (UTC): 20 May 2019 19:57:31
Eccentricity: 0.0001447
inclination: 98.2058°
perigee height: 701 km
apogee height: 703 km
right ascension of ascending node: 215.7944°
argument of perigee: 101.5173°
revolutions per day: 14.57114647
mean anomaly at epoch: 258.6165°
orbit number at epoch: 3299

The dashed part of the orbit path shows where the satellite is in the earth's shadow,  

DLR